| time (UTC) | temp F | wind direction | speed knots | gust knots | rain 1hr in | rain 24hr in | rain mn in | humidity % | barometer mb |
| 20260905224539 | 97 | 196 | 2.6 | 6.1 | 0.00 | 0.00 | 0.00 | 40 | 1010.3 |
| 20260905223035 | 98 | 259 | 0.9 | 4.3 | 0.00 | 0.00 | 0.00 | 39 | 1010.5 |
| 20260905221541 | 97 | 216 | 0.9 | 2.6 | 0.00 | 0.00 | 0.00 | 40 | 1010.6 |
| 20260905220038 | 95 | 247 | 0.9 | 2.6 | 0.00 | 0.00 | 0.00 | 54 | 1010.6 |
| 20260905214534 | 95 | 267 | 1.7 | 4.3 | 0.00 | 0.00 | 0.00 | 54 | 1010.6 |
| 20260905213037 | 94 | 254 | 1.7 | 5.2 | 0.00 | 0.00 | 0.00 | 42 | 1010.6 |
| 20260905211535 | 93 | 273 | 0.9 | 6.1 | 0.00 | 0.00 | 0.00 | 44 | 1010.8 |
| 20260905210035 | 94 | 266 | 3.5 | 11.3 | 0.00 | 0.00 | 0.00 | 56 | 1011.1 |
| 20260905204537 | 98 | 295 | 0.0 | 5.2 | 0.00 | 0.00 | 0.00 | 52 | 1011.0 |
| 20260905203038 | 98 | 226 | 2.6 | 6.1 | 0.00 | 0.00 | 0.00 | 35 | 1011.3 |
| 20260905201535 | 100 | 187 | 7.0 | 9.6 | 0.00 | 0.00 | 0.00 | 34 | 1011.5 |
| 20260905200033 | 100 | 237 | 4.3 | 7.8 | 0.00 | 0.00 | 0.00 | 48 | 1011.4 |
| 20260905194535 | 100 | 107 | 3.5 | 11.3 | 0.00 | 0.00 | 0.00 | 36 | 1011.8 |
| 20260905193035 | 99 | 248 | 5.2 | 13.0 | 0.00 | 0.00 | 0.00 | 35 | 1011.9 |
| 20260905191537 | 101 | 0 | 1.7 | 4.3 | 0.00 | 0.00 | 0.00 | 35 | 1012.3 |
| 20260905190056 | 99 | 0 | 1.7 | 7.0 | 0.00 | 0.00 | 0.00 | 37 | 1012.6 |
| 20260905184553 | 100 | 283 | 1.7 | 5.2 | 0.00 | 0.00 | 0.00 | 38 | 1012.5 |
| 20260905183036 | 98 | 259 | 3.5 | 6.1 | 0.00 | 0.00 | 0.00 | 51 | 1012.8 |
| 20260905181534 | 97 | 229 | 3.5 | 6.1 | 0.00 | 0.00 | 0.00 | 41 | 1013.2 |
| 20260905180035 | 98 | 277 | 1.7 | 5.2 | 0.00 | 0.00 | 0.00 | 52 | 1013.2 |
| 20260905174543 | 98 | 272 | 1.7 | 5.2 | 0.00 | 0.00 | 0.00 | 53 | 1013.2 |
| 20260905173039 | 97 | 256 | 1.7 | 7.8 | 0.00 | 0.00 | 0.00 | 42 | 1013.3 |
| 20260905171533 | 96 | 354 | 3.5 | 6.1 | 0.00 | 0.00 | 0.00 | 54 | 1013.3 |
| 20260905170037 | 96 | 268 | 2.6 | 9.6 | 0.00 | 0.00 | 0.00 | 55 | 1013.3 |
| 20260905164536 | 96 | 183 | 2.6 | 5.2 | 0.00 | 0.00 | 0.00 | 55 | 1013.6 |
| 20260905163036 | 94 | 236 | 4.3 | 7.8 | 0.00 | 0.00 | 0.00 | 46 | 1013.9 |
| 20260905161537 | 94 | 267 | 2.6 | 6.1 | 0.00 | 0.00 | 0.00 | 48 | 1014.0 |
| 20260905160035 | 94 | 272 | 2.6 | 6.1 | 0.00 | 0.00 | 0.00 | 62 | 1014.2 |
| 20260905154534 | 93 | 227 | 2.6 | 5.2 | 0.00 | 0.00 | 0.00 | 52 | 1014.1 |
| 20260905153036 | 93 | 282 | 0.9 | 4.3 | 0.00 | 0.00 | 0.00 | 54 | 1014.1 |
| 20260905151538 | 91 | 300 | 2.6 | 6.1 | 0.00 | 0.00 | 0.00 | 69 | 1014.1 |
| 20260905150034 | 91 | 229 | 3.5 | 4.3 | 0.00 | 0.00 | 0.00 | 57 | 1014.1 |
| 20260905144541 | 90 | 263 | 2.6 | 6.1 | 0.00 | 0.00 | 0.00 | 68 | 1014.2 |
| 20260905143035 | 89 | 190 | 3.5 | 6.1 | 0.00 | 0.00 | 0.00 | 70 | 1014.3 |
| 20260905141542 | 87 | 208 | 3.5 | 6.1 | 0.00 | 0.00 | 0.00 | 60 | 1014.3 |
| 20260905140036 | 87 | 184 | 0.9 | 3.5 | 0.00 | 0.00 | 0.00 | 65 | 1014.4 |
| 20260905134537 | 85 | 166 | 0.0 | 1.7 | 0.00 | 0.00 | 0.00 | 68 | 1014.5 |
| 20260905133036 | 83 | 176 | 1.7 | 4.3 | 0.00 | 0.00 | 0.00 | 72 | 1014.5 |
| 20260905131552 | 81 | 171 | 0.9 | 2.6 | 0.00 | 0.00 | 0.00 | 76 | 1014.6 |
| 20260905130038 | 80 | 167 | 2.6 | 3.5 | 0.00 | 0.00 | 0.00 | 78 | 1014.6 |
| 20260905124546 | 79 | 0 | 0.0 | 0.0 | 0.00 | 0.00 | 0.00 | 79 | 1014.6 |
| 20260905123045 | 78 | 0 | 0.0 | 0.0 | 0.00 | 0.00 | 0.00 | 81 | 1014.6 |
| 20260905121538 | 76 | 0 | 0.0 | 0.9 | 0.00 | 0.00 | 0.00 | 84 | 1014.5 |
| 20260905120036 | 74 | 178 | 0.0 | 1.7 | 0.00 | 0.00 | 0.00 | 85 | 1014.3 |
| 20260905114542 | 73 | 176 | 0.9 | 1.7 | 0.00 | 0.00 | 0.00 | 85 | 1014.2 |
| 20260905113041 | 74 | 153 | 0.0 | 1.7 | 0.00 | 0.00 | 0.00 | 85 | 1013.9 |
| 20260905111550 | 74 | 165 | 2.6 | 3.5 | 0.00 | 0.00 | 0.00 | 84 | 1013.9 |
| 20260905110035 | 74 | 188 | 0.0 | 0.9 | 0.00 | 0.00 | 0.00 | 84 | 1013.5 |
| 20260905104554 | 74 | 190 | 0.0 | 0.9 | 0.00 | 0.00 | 0.00 | 84 | 1013.3 |
| 20260905103036 | 74 | 185 | 0.0 | 0.9 | 0.00 | 0.00 | 0.00 | 83 | 1013.3 |
| 20260905101540 | 75 | 0 | 0.0 | 0.0 | 0.00 | 0.00 | 0.00 | 84 | 1013.3 |
| 20260905100034 | 75 | 0 | 0.0 | 0.0 | 0.00 | 0.00 | 0.00 | 84 | 1013.2 |
| 20260905094536 | 75 | 185 | 0.0 | 0.9 | 0.00 | 0.00 | 0.00 | 84 | 1013.3 |
| 20260905093034 | 75 | 0 | 0.0 | 0.9 | 0.00 | 0.00 | 0.00 | 83 | 1013.2 |
| 20260905091536 | 75 | 0 | 0.0 | 2.6 | 0.00 | 0.00 | 0.00 | 83 | 1013.1 |
| 20260905090037 | 75 | 171 | 0.9 | 1.7 | 0.00 | 0.00 | 0.00 | 81 | 1013.1 |
| 20260905084557 | 76 | 0 | 0.0 | 0.0 | 0.00 | 0.00 | 0.00 | 81 | 1013.1 |
| 20260905083033 | 76 | 0 | 0.0 | 0.0 | 0.00 | 0.00 | 0.00 | 81 | 1013.2 |
| 20260905081533 | 76 | 0 | 0.0 | 0.9 | 0.00 | 0.00 | 0.00 | 81 | 1013.2 |
| 20260905080035 | 76 | 0 | 0.0 | 0.9 | 0.00 | 0.00 | 0.00 | 81 | 1013.3 |
| 20260905074536 | 76 | 0 | 0.0 | 0.9 | 0.00 | 0.00 | 0.00 | 81 | 1013.4 |
| 20260905073036 | 77 | 0 | 0.0 | 0.9 | 0.00 | 0.00 | 0.00 | 80 | 1013.3 |
| 20260905071534 | 77 | 0 | 0.0 | 0.0 | 0.00 | 0.00 | 0.00 | 79 | 1013.5 |
| 20260905070033 | 77 | 0 | 0.0 | 0.0 | 0.00 | 0.00 | 0.00 | 79 | 1013.6 |
| 20260905064535 | 77 | 0 | 0.0 | 0.9 | 0.00 | 0.00 | 0.00 | 79 | 1013.6 |
| 20260905063035 | 78 | 0 | 0.0 | 0.9 | 0.00 | 0.00 | 0.00 | 79 | 1013.6 |
| 20260905061533 | 78 | 0 | 0.0 | 1.7 | 0.00 | 0.00 | 0.00 | 79 | 1013.7 |
| 20260905060035 | 78 | 178 | 1.7 | 1.7 | 0.00 | 0.00 | 0.00 | 77 | 1013.8 |
| 20260905054536 | 79 | 0 | 0.0 | 0.0 | 0.00 | 0.00 | 0.00 | 76 | 1013.8 |
| 20260905053034 | 79 | 0 | 0.0 | 2.6 | 0.00 | 0.00 | 0.00 | 76 | 1013.9 |
| 20260905051539 | 80 | 0 | 0.0 | 1.7 | 0.00 | 0.00 | 0.00 | 75 | 1013.9 |
| 20260905050036 | 79 | 209 | 0.0 | 0.9 | 0.00 | 0.00 | 0.00 | 77 | 1013.7 |
| 20260905044535 | 79 | 0 | 0.0 | 0.9 | 0.00 | 0.00 | 0.00 | 77 | 1013.7 |
| 20260905043033 | 79 | 200 | 0.0 | 2.6 | 0.00 | 0.00 | 0.00 | 77 | 1013.8 |
| 20260905041538 | 80 | 0 | 0.0 | 0.9 | 0.00 | 0.00 | 0.00 | 75 | 1013.7 |
| 20260905040035 | 80 | 180 | 0.0 | 0.9 | 0.00 | 0.00 | 0.00 | 75 | 1013.8 |
| 20260905034544 | 81 | 180 | 0.0 | 1.7 | 0.00 | 0.00 | 0.00 | 74 | 1013.9 |
| 20260905033034 | 81 | 0 | 0.0 | 0.9 | 0.00 | 0.00 | 0.00 | 73 | 1013.9 |
| 20260905031538 | 81 | 0 | 0.0 | 0.0 | 0.00 | 0.00 | 0.00 | 73 | 1014.1 |
| 20260905030036 | 82 | 0 | 0.0 | 0.9 | 0.00 | 0.00 | 0.00 | 72 | 1014.1 |
| 20260905024536 | 82 | 0 | 0.0 | 0.9 | 0.00 | 0.00 | 0.00 | 71 | 1014.1 |
| 20260905023042 | 82 | 0 | 0.0 | 0.9 | 0.00 | 0.00 | 0.00 | 70 | 1014.0 |
| 20260905021541 | 83 | 0 | 0.0 | 0.0 | 0.00 | 0.00 | 0.00 | 70 | 1013.8 |
| 20260905020034 | 84 | 0 | 0.0 | 0.0 | 0.00 | 0.00 | 0.00 | 69 | 1013.7 |
| 20260905014535 | 84 | 0 | 0.0 | 0.0 | 0.00 | 0.00 | 0.00 | 67 | 1013.7 |
| 20260905013035 | 85 | 0 | 0.0 | 0.9 | 0.00 | 0.00 | 0.00 | 66 | 1013.5 |
| 20260905011539 | 85 | 0 | 0.0 | 1.7 | 0.00 | 0.00 | 0.00 | 66 | 1013.5 |
| 20260905010036 | 86 | 181 | 0.0 | 0.9 | 0.00 | 0.00 | 0.00 | 79 | 1013.5 |
| 20260905004545 | 86 | 0 | 0.0 | 0.9 | 0.00 | 0.00 | 0.00 | 67 | 1013.6 |
| 20260905003037 | 86 | 0 | 0.0 | 0.9 | 0.00 | 0.00 | 0.00 | 66 | 1013.3 |
| 20260905001535 | 87 | 345 | 0.0 | 0.9 | 0.00 | 0.00 | 0.00 | 66 | 1013.3 |
| 20260905000035 | 90 | 345 | 0.0 | 0.9 | 0.00 | 0.00 | 0.00 | 72 | 1013.2 |
| 20260904234544 | 97 | 199 | 0.0 | 0.0 | 0.00 | 0.00 | 0.00 | 53 | 1013.2 |
| 20260904233052 | 99 | 0 | 0.0 | 0.9 | 0.00 | 0.00 | 0.00 | 45 | 1012.9 |
| 20260904231535 | 100 | 0 | 0.0 | 0.9 | 0.00 | 0.00 | 0.00 | 54 | 1012.9 |
| 20260904230036 | 100 | 237 | 0.0 | 3.5 | 0.00 | 0.00 | 0.00 | 36 | 1012.8 |